Location: Lecco
(45.8566°N, 9.3977°E)
Time: 12:29:16
(UTC+02:00)

Vanguard 2 Rocket - Pass Details

Date: 19 August 2020
Orbit: 554 x 3326 km, 32.9° (Epoch: 24 September)

Event Time Altitude Azimuth Distance (km) Brightness Sun altitude
Rises 20:42:48 0° 255° (WSW) 3,452 10.8 -4.0°
Reaches altitude 10° 20:45:37 10° 238° (WSW) 2,812 9.9 -4.4°
Maximum altitude 20:50:34 21° 192° (SSW) 2,643 9.2 -5.2°
Drops below altitude 10° 20:57:33 10° 149° (SSE) 4,161 9.8 -6.3°
Enters shadow 21:01:19 - 140° (SE) 5,238 10.2 -6.9°
Sets 21:03:02 0° 137° (SE) 5,730 - -7.2°
